Regional Weather Roundup
Issued by NWS Pendleton, OR

Home | Current Version | Previous Version | Text Only | Print | Product List | Glossary On
Versions: 1 2 3 4 5 6 7 8 9 10 11 12 13 14 15 16 17 18 19 20 21 22 23 24 25 26 27 28 29 30 31 32 33 34 35 36 37 38 39 40 41 42 43 44 45 46 47 48 49 50
000
ASUS46 KPDT 290204
RWRPDT
PENDLETON REGIONAL WEATHER ROUNDUP
NATIONAL WEATHER SERVICE PENDLETON OREGON
700 PM PDT THU JUL 28 2016

NOTE: FAIR INDICATES FEW OR NO CLOUDS BELOW 12,000 FEET WITH NO
SIGNIFICANT WEATHER AND/OR OBSTRUCTIONS TO VISIBILITY.

# INDICATES UNOFFICIAL STATION AND DATA

WAZ520-290310-
EAST SLOPES OF WASHINGTON CASCADES

CITY            SKY/WX      TMP DP  RH  WIND    PRES   REMARKS
#CLE ELUM HS    N/A         86  48  27  W7      29.97R
#CLE ELUM 2NW   N/A         83  49  31  S7      N/A
#GLENWOOD       N/A         91  60  36  CALM    29.85F HX 91
#MANASTASH CYN  N/A         83  54  37  CALM    30.02S
#NELSON 3SW     N/A         80  53  39  CALM    30.09S
#NILE           N/A         86  55  35  W2      29.18R
#RONALD 2NW     N/A         87  N/A N/A W1      30.12F
#TEANAWAY 4NE   N/A         88  53  30  W3      N/A
#TROUT LAKE 1NE N/A         89  58  35  W8      29.86F
#TROUT LAKE 1E  N/A         88  59  38  CALM    29.94S
$$

WAZ521-290310-
SIMCOE HIGHLANDS

CITY            SKY/WX      TMP DP  RH  WIND    PRES   REMARKS
#CENTERVILLE 1SWN/A         94  56  28  W10     29.80F HX 92
#GOLDENDALE 1NE N/A         96  28   9  CALM    N/A    HX 91
#GOLDENDALE 4W  N/A         97  62  32  W12     29.96F HX 98
#GOODNOE HILLS  N/A         98  47  18  E6      29.83F HX 94
#LYLE 6NE       N/A         89  64  44  SW8     29.82F
$$

WAZ026-290310-
KITTITAS VALLEY

CITY            SKY/WX      TMP DP  RH  WIND    PRES   REMARKS
ELLENSBURG AP   SUNNY       89  54  31  NW15    29.97S
#ELLENSBURG CWU N/A         92  54  28  N10     29.82S HX 90
#ELLENSBURG 3NE N/A         87  54  32  N7      29.97S
#ELLENSBURG     N/A         92  53  27  NW8     N/A    HX 90
#KITTITAS 4N    N/A         92  55  29  SW9     30.00F HX 90
#KITTITAS 3S    N/A         85  61  45  NW5     29.83F
#THORP 6N       N/A         86  51  30  W20G32  29.89S
$$

WAZ027-290310-
YAKIMA VALLEY

CITY            SKY/WX      TMP DP  RH  WIND    PRES   REMARKS
SUNNYSIDE AP    SUNNY       94  56  28  E3      29.88F HX 92
YAKIMA AIRPORT  MOSUNNY     98  52  21  W5      29.90F HX 95
#DONALD 2NE     N/A         100 22   6  CALM    28.75F HX 94
#GRANDVIEW      N/A         92  53  27  CALM    29.85F HX 90
#MABTON         N/A         95  69  43  CALM    29.87F HX 101
#NACHES 2SW     N/A         95  62  34  CALM    29.98F HX 96
#TERRACE HTS    N/A         97  52  22  S1      29.80S HX 94
#TOPPENISH      N/A         96  56  26  CALM    29.75F HX 94
#WEST VALLEY    N/A         97  52  22  CALM    29.81F HX 94
#W YAKIMA       N/A         97  51  21  W1      29.83F HX 94
#WHITE SWAN 5E  N/A         96  57  27  CALM    29.84F HX 95
#WILEY CITY 3W  N/A         94  47  20  CALM    29.91S HX 90
$$

WAZ028-290310-
LOWER COLUMBIA BASIN...WASHINGTON

CITY            SKY/WX      TMP DP  RH  WIND    PRES   REMARKS
PASCO           SUNNY       100 50  19  N7      29.86F HX 97
PROSSER AWOS    N/A         97  57  27  N3      29.90F HX 96
RICHLAND AWOS   SUNNY       100 44  15  CALM    29.86F HX 96
#BENTON CITY    N/A         96  48  20  NE3     29.74F HX 93
#CONNELL 5N     N/A         101 46  16  CALM    29.84F HX 97
#CONNELL 5NW    N/A         94  61  34  CALM    29.80F HX 94
#ELTOPIA 6NW    N/A         102 62  27  CALM    28.87F HX 104
#KAHLOTUS       N/A         95  48  20  N12     29.82F HX 91
#KENNEWICK 3S   N/A         96  54  25  CALM    29.83F HX 94
#PATERSON       N/A         97  60  30  CALM    29.80F HX 97
#SAGEMOOR 2W    N/A         97  69  40  CALM    29.69F HX 103
#TOUCHET 2S     N/A         96  60  30  NW2     29.81F HX 96
#WEST PASCO     N/A         101 57  24  CALM    29.84F HX 101
$$

WAZ029-290310-
FOOTHILLS OF THE BLUES...WASHINGTON

CITY            SKY/WX      TMP DP  RH  WIND    PRES   REMARKS
WALLA WALLA AP  SUNNY       96  51  22  SW9     29.89F HX 93
#CLYDE 6NW      N/A         98  46  17  N7      29.81F HX 94
#DAYTON SCHOOL  N/A         95  43  17  N1      29.93F HX 91
#LOWDEN 2SE     N/A         94  64  37  W5      29.82F HX 96
#PLEASANT VIEW 1N/A         96  43  16  CALM    29.85F HX 92
#PRESCOTT       N/A         99  51  20  N2      29.79F HX 96
#WHITMAN COLLEGEN/A         96  57  27  SW10    29.86F HX 95
#WAITSBURG 5S   N/A         98  51  21  N1      29.90F HX 95
#WAITSBURG 8N   N/A         96  33  11  W5      29.85S HX 91
#WALLA WALLA U  N/A         96  57  27  CALM    29.81F HX 95
#WHITMAN MISSIONN/A         96  59  29  W5      29.83S HX 95
$$

WAZ030-290310-
BLUE MOUNTAINS...WASHINGTON

CITY            SKY/WX      TMP DP  RH  WIND    PRES   REMARKS
#DIXIE 5SE      N/A         88  49  26  NW7     29.97F
$$

ORZ009-041-WAZ024-290310-
COLUMBIA RIVER GORGE

CITY            SKY/WX      TMP DP  RH  WIND    PRES   REMARKS
HOOD RIVER AP   SUNNY       93  61  35  NW9     29.89F HX 93
THE DALLES AP   SUNNY       95  60  31  N14     29.84F HX 95
#ARLINGTON AIRPON/A         97  45  17  SE3     29.84F HX 93
#LYLE           N/A         92  68  46  W9      29.85S HX 96
#MARYHILL 2W    N/A         97  52  22  W5      N/A    HX 94
#MOSIER 1S      N/A         91  47  22  NW2     29.88F HX 88
#MURDOCK        N/A         94  65  39  NW12    29.79F HX 97
#RUFUS DOT      N/A         100 49  18  NE6     N/A    HX 97
#SMITHVILLE     N/A         96  63  34  NW13    29.71F HX 98

$$

ORZ510-290310-
NORTH CENTRAL OREGON

CITY            SKY/WX      TMP DP  RH  WIND    PRES   REMARKS
#ANTELOPE       N/A         92  48  22  NE7     29.67S HX 89
#CHENOWITH 1W   N/A         89  57  34  W18     N/A
#COW CYN RST AREN/A         92  N/A N/A N8      N/A
#DUFUR 9E       N/A         91  46  21  NW14    29.89F HX 87
#GRASS VALLEY 1SN/A         94  44  18  N3      29.94F HX 90
#KENT DOT       N/A         94  45  19  N8      N/A    HX 90
#MAUPIN SCHOOL  N/A         98  44  16  N5      29.91F HX 94
#SHANIKO 5WSW   N/A         90  44  20  N14     N/A    HX 86
#SHANIKO 4NW    N/A         87  59  39  VRB8    30.09
#TYGH VALLEY 2NEN/A         98  46  17  N7      29.83S HX 94
#WAPANITIA AIRPON/A         95  42  16  NE7     29.85S HX 91
#WASCO DOT      N/A         101 55  22  SW1     N/A    HX 100
#WASCO 5NE      N/A         97  54  24  E5      29.82F HX 95
$$

ORZ511-290310-
CENTRAL OREGON

CITY            SKY/WX      TMP DP  RH  WIND    PRES   REMARKS
BEND AIRPORT    SUNNY       91  37  15  N9      30.04S HX 87
MADRAS AIRPORT  SUNNY       100 37  11  N9      30.00F HX 95
PRINEVILLE AP   SUNNY       91  39  16  N12     30.02F HX 87
REDMOND AIRPORT SUNNY       94  31  11  N12     30.01F HX 89
#ASHWOOD SCHOOL N/A         94  41  16  N9      29.95F HX 90
#BEND 1SW       N/A         87  41  20  NE2     N/A
#BEND-AWBREY    N/A         94  42  17  N6      29.83S HX 90
#CULVER         N/A         93  46  20  N3      29.76F HX 89
#CULVER 8W      N/A         94  33  12  CALM    30.01F HX 89
#LAKE BILLY CHINN/A         95  N/A N/A E8      30.00F
#MADRAS 4S      N/A         93  33  12  NE12    30.06S HX 89
#POWELL BUTTE   N/A         87  46  24  N3      29.92F
#PRINEVILLE 3N  N/A         88  53  30  N6      29.90F
#WARM SPRINGS   N/A         99  46  17  CALM    29.89F HX 95

$$


ORZ509-290310-
EAST SLOPES OF OREGON CASCADES

CITY            SKY/WX      TMP DP  RH  WIND    PRES   REMARKS
SISTERS AWOS    N/A         91  41  18  NE8     30.00S HX 87
#BLUE BOX PASS  N/A         81  N/A N/A W1      N/A
#CAMP SHERMAN   N/A         91  40  17  CALM    29.95R HX 87
#LA PINE DOT    N/A         89  32  13  N8      N/A
#LA PINE 4NW    N/A         88  50  27  CALM    29.87S
#LAVA BUTTE DOT N/A         89  45  22  CALM    N/A
#SISTERS AIRPOR N/A         92  52  26  N5      30.17S HX 89
#SISTERS 3N     N/A         89  43  20  N3      30.00S
#SUNRIVER       N/A         89  45  22  N2      30.00S
#SUTTLE LK DOT  N/A         85  49  29  N1      N/A
#TUMALO 3W      N/A         90  39  17  N7      29.71F HX 86
#WANOGA BUTTE D N/A         79  37  22  NE8     N/A

$$

ORZ044-290310-
LOWER COLUMBIA BASIN...OREGON

CITY            SKY/WX      TMP DP  RH  WIND    PRES   REMARKS
HERMISTON       SUNNY       100 51  19  NE6     29.87F HX 97
#BOARDMAN 8SW   N/A         98  55  24  NE3     29.83F HX 96
#ECHO 8SW       N/A         100 52  20  CALM    29.89F HX 97
#I-84 EX 198 DOTN/A         96  59  29  E8      N/A    HX 95
#UMATILLA       N/A         103 55  21  CALM    29.75F HX 102
$$

ORZ507-290310-
NORTHERN FOOTHILLS OF THE BLUES

CITY            SKY/WX      TMP DP  RH  WIND    PRES   REMARKS
PENDLETON AIRPT SUNNY       96  41  15  NW13    29.93S HX 92
#ADAMS 3WNW     N/A         95  50  22  NW5     29.83S HX 92
#ATHENA         N/A         95  54  25  CALM    29.86F HX 93
#CAYUSE         N/A         95  54  25  CALM    29.81F HX 93
#HELIX SCHOOL   N/A         93  51  24  CALM    29.84F HX 90
#HELIX 3N       N/A         92  50  24  W3      29.93F HX 89
#HOLDMAN 5SE    N/A         96  47  19  W2      29.92S HX 92
#HOLDMAN 6E     N/A         95  49  21  E3      29.65F HX 92
#M-F GROVE ELEM N/A         95  50  22  NW2     29.88F HX 92
#M-FREEWATER 5SEN/A         92  59  33  W1      29.91F HX 91
#PENDLETON DNTN N/A         96  50  21  NW2     29.92S HX 93
#PDT AQUATIC CTRN/A         100 46  16  NW7     29.74S HX 96
#PDT SUNRIDGE   N/A         97  48  19  NW5     29.91S HX 94
#PENDLETON 7NW  N/A         94  58  30  NW3     31.70S HX 93
#PILOT ROCK 1S  N/A         92  50  24  CALM    29.95F HX 89
#PILOT ROCK     N/A         97  53  23  NW1     29.97S HX 95
#TUTUILLA       N/A         95  48  20  CALM    29.86F HX 91
#UMAPINE 2E     N/A         91  64  41  CALM    29.85S HX 93
#WESTON SCHOOL  N/A         92  48  22  E2      29.75F HX 89

$$

ORZ508-290310-
SOUTHERN FOOTHILLS OF THE BLUES

CITY            SKY/WX      TMP DP  RH  WIND    PRES   REMARKS
LEXINGTON       SUNNY       95  39  14  N6      29.97F HX 91
#CONDON 5W      N/A         87  37  17  N7      30.03F
#HEPPNER EOC    N/A         94  48  21  N2      29.78S HX 91
#HEPPNER 4NE    N/A         89  47  24  N3      29.85S
#LEXINGTON 2SE  N/A         97  48  19  N1      29.91F HX 94
#RUGGS 5NE      N/A         93  43  18  VRB8    30.17F HX 89
#RUGGS 2SW      N/A         91  44  20  N7      29.86S HX 87

$$

ORZ502-503-290310-
BLUE MOUNTAINS

CITY            SKY/WX      TMP DP  RH  WIND    PRES   REMARKS
MEACHAM         SUNNY       85  42  22  CALM    30.10S
#BATTLE MTN DOT N/A         82  48  31  N3      N/A
#CUTSFORTH PARK N/A         81  49  33  CALM    29.89S
#GREENHORN 9SW  N/A         90  35  14  W3      26.23F HX 86
#HARDMAN 10S    N/A         61  34  36  N5      30.22R
#HEPPNER 15SE   N/A         82  46  28  W2      30.04S
#LADD CYN SMT   N/A         90  47  23  NW8     N/A    HX 87
#LADD CREEK ODOTN/A         91  52  27  CALM    N/A    HX 88
#LONG CREEK HS  N/A         88  47  24  CALM    N/A
#N POWDER DOT   N/A         89  55  32  N13     N/A
#PIKES PEAK     N/A         83  51  33  SW14    27.99S
#TOLLGATE       N/A         76  52  43  CALM    30.03S
#TROY SCHOOL    N/A         98  51  21  N1      29.65F HX 95
#UKIAH          N/A         87  46  24  NW7     29.79F
#WESTON 4E      N/A         89  54  31  CALM    29.81F
$$

ORZ505-290310-
JOHN DAY BASIN

CITY            SKY/WX      TMP DP  RH  WIND    PRES   REMARKS
JOHN DAY        SUNNY       93  32  12  N10     30.05S HX 89
#DAYVILLE SCHOOLN/A         97  38  13  N3      29.93S HX 92
#MITCHELL       N/A         94  55  27  CALM    30.17F HX 92
#MITCHELL 8NW   N/A         92  38  15  CALM    30.01S HX 88
#MONUMENT HS    N/A         96  46  18  VRB8    29.79F HX 92
#MT. VERNON 5SE N/A         90  34  14  CALM    30.02F HX 86
#SPRAY SCHOOL   N/A         98  N/A N/A NE3     N/A
$$

ORZ506-290310-
OCHOCO AND JOHN DAY HIGHLANDS

CITY            SKY/WX      TMP DP  RH  WIND    PRES   REMARKS
#BUCK CREEK DOT N/A         95  40  15  NW16    N/A    HX 91
#HORSE RIDGE DO N/A         90  36  15  NW10    N/A    HX 86
#KEYES SMT DOT  N/A         90  41  18  NW13    N/A    HX 86
#PAULINA SCHOOL N/A         94  34  12  N7      N/A    HX 89
#PINE MTN OBS   N/A         77  40  26  NW8     N/A
#PRAIRIE CITY   N/A         94  37  14  CALM    30.19F HX 90
#SENECA         N/A         91  N/A N/A N3      N/A
#SENECA 9NW     N/A         86  39  19  CALM    29.80F
$$

ORZ049-290310-
GRANDE RONDE VALLEY

CITY            SKY/WX      TMP DP  RH  WIND    PRES   REMARKS
LA GRANDE       SUNNY       91  48  23  N9      29.99S HX 88
#COVE           N/A         92  59  33  NW1     30.03S HX 91
#COVE SCHOOL    N/A         90  54  30  NW1     30.01F HX 88
#COVE 6NW       N/A         88  57  35  NW6     29.87S
#ELGIN 3N       N/A         92  48  22  W1      29.97R HX 89
#ELGIN 1E       N/A         93  56  29  CALM    N/A    HX 91
#IMBLER SCHOOL  N/A         88  54  31  W8      29.95S
#ISLAND CITY 4N N/A         91  59  34  CALM    29.94F HX 90
#LADD CYN DOT   N/A         94  55  27  N6      N/A    HX 92
#UNION 1S       N/A         93  48  22  W3      29.73F HX 90
$$

ORZ050-290310-
WALLOWA COUNTY

CITY            SKY/WX      TMP DP  RH  WIND    PRES   REMARKS
#ENTERPRISE AP  N/A         49  29  46  CALM    30.01F
#ENTERPRISE HS  N/A         88  49  26  CALM    30.05F
#IMNAHA SCHOOL  N/A         92  44  19  NW1     29.91F HX 88
#IMNAHA 10S     N/A         88  44  22  CALM    29.98F
#JOSEPH 3N      N/A         82  48  31  CALM    30.09F
#JOSEPH 3W      N/A         72  50  46  SW5     29.98S
#LOSTINE        N/A         88  49  26  CALM    29.64F
#LOSTINE 3SE    N/A         87  42  21  N1      30.02F
#MT HOWARD 8000 N/A         68  41  37  CALM    30.42S
#PROMISE 1S     N/A         85  51  31  W7      29.94F
#WALLOWA SCHOOL N/A         92  48  22  CALM    29.96F HX 89



$$



USA.gov is the U.S. government's official web portal to all federal, state and local government web resources and services.